Погода в Гнетово

Россия / Рязанская область     54°38′42″N   39°58′54″E
В апреле 2022 года жителям России запретили посещать сайт meteo.paraplan.net по решению Генеральной прокуратуры. Аудитория сайта уменьшилась в 10 раз. Владельцы сайта не видят смысла в поддержке погодного сервера в таких условиях. Сайт будет закрыт в октябре.
темп.,
°C
ветер,
м/с
пор.,
м/с
влажн.,
%
обл.,
%
осадки,
мм/ч
давл.,
гПа
погр.,
м
29 сентября, чт
чт2900:00+9зсз348099 0.0 1005223
03:00+9з3479100 0.0 1006255
06:00+9зюз118698 0.0 100715
09:00+11ю1280100 0.0 1008209
12:00+13ю347498 0.0 1010532
15:00+16ююз357171 0.0 1010963
18:00+12ю2288100 0.1 101231
21:00+11ююз239467 0.1 101454
30 сентября, пт
пт3000:00+10ю119285 0.0 101510
03:00+9ююв2293100 0.0 101619
06:00+9ююв239599 0.0 101763
09:00+13ююв3683100 0.0 1017255
12:00+17ю4767100 0.0 1017770
15:00+18ю4769100 0.0 1016968
18:00+14ююз31094100 2.3 1017447
21:00+14ю4109599 4.0 1017571
1 октября, сб
сб100:00+13ю259877 0.7 1017163
03:00+13ю119892 1.4 101712
06:00+14юв1199100 0.4 101739
09:00+15ююв3594100 1.0 1017291
12:00+16ю3687100 0.4 1015620
15:00+15ююз3695100 2.8 1015391
18:00+14ююз239599 0.0 101467
21:00+14ю2798100 2.2 1012259
2 октября, вс
вс200:00+14ю2599100 10.8 1011211
03:00+14ююз2398100 14.3 1010141
06:00+13юз2697100 0.3 1010229
09:00+14зюз3894100 0.3 1010515
12:00+16зюз467798 0.1 1010982
15:00+15з4671100 0.1 10111090
18:00+12зсз368329 0.0 1012349
21:00+9сз2293100 0.0 101230
3 октября, пн
пн300:00+9св1196100 0.0 101212
03:00+8в2695100 0.0 1010132
06:00+13в41190100 0.0 1006324
09:00+15в51291100 0.6 1005500
12:00+18вюв61373100 0.0 1004783
15:00+17юв61268100 0.0 10031002
18:00+15вюв71775100 0.6 10021216
21:00+16юв91976100 0.8 10021496